Regional Weather Roundup
Issued by NWS Pendleton, OR

Home | Current Version | Previous Version | Text Only | Print | Product List | Glossary On
Versions: 1 2 3 4 5 6 7 8 9 10 11 12 13 14 15 16 17 18 19 20 21 22 23 24 25 26 27 28 29 30 31 32 33 34 35 36 37 38 39 40 41 42 43 44 45 46 47 48 49 50
000
ASUS46 KPDT 241125
RWRPDT
PENDLETON REGIONAL WEATHER ROUNDUP
NATIONAL WEATHER SERVICE PENDLETON OREGON
300 AM PST FRI NOV 24 2017

NOTE: FAIR INDICATES FEW OR NO CLOUDS BELOW 12,000 FEET WITH NO
SIGNIFICANT WEATHER AND/OR OBSTRUCTIONS TO VISIBILITY.

# INDICATES UNOFFICIAL STATION AND DATA

WAZ520-241210-
EAST SLOPES OF WASHINGTON CASCADES

CITY            SKY/WX      TMP DP  RH  WIND    PRES   REMARKS
#BULLFROG       N/A         38  38  100 NE1     N/A
#CLE ELUM HS    N/A         40  36  85  CALM    29.93R
#CLE ELUM LAKE  N/A         36  34  92  W1      29.97R
#EASTON DOT     N/A         36  35  96  N3      N/A
#ELK HTS DOT    N/A         38  38  100 S2      N/A
#GLENWOOD       N/A         42  38  86  S7      30.01R
#NELSON 3SW     N/A         35  33  92  CALM    30.18R
#NILE           N/A         32  31  96  W1      29.28R
#TROUT LAKE 1NE N/A         39  37  92  W5      30.04R
#TROUT LAKE 1E  N/A         36  35  96  CALM    30.06R
$$

WAZ521-241210-
SIMCOE HIGHLANDS

CITY            SKY/WX      TMP DP  RH  WIND    PRES   REMARKS
#BICKLETON HS   N/A         N/A N/A N/A E1      29.96S
#CENTERVILLE 1SWN/A         41  36  82  W14     30.02R WCI 33
#GOLDENDALE 4W  N/A         43  29  57  SW12    30.07R WCI 37
#GOODNOE HILLS  N/A         40  37  89  W9      N/A
#LYLE 6NE       N/A         43  41  93  S8      30.05R
#PITT 4SE       N/A         39  37  92  W10     30.05R
$$

WAZ026-241210-
KITTITAS VALLEY

CITY            SKY/WX      TMP DP  RH  WIND    PRES   REMARKS
ELLENSBURG AP   CLOUDY      43  35  73  NW15    29.97R WCI 36
#ELLENSBURG CWU N/A         40  36  85  W5      29.93R
#ELLENSBURG 3NE N/A         41  37  86  N6      28.05R
#ELLENSBURG 1E  N/A         38  35  89  CALM    30.04R
#MANASTASH RDG  N/A         38  38  100 W6      N/A
#RYEGRASS DOT   N/A         35  33  92  W7      N/A
$$

WAZ027-241210-
YAKIMA VALLEY

CITY            SKY/WX      TMP DP  RH  WIND    PRES   REMARKS
SUNNYSIDE AP    CLEAR       35  32  89  NE5     30.01R
YAKIMA AIRPORT  PTCLDY      34  30  85  SW3     30.00R
YAKIMA-VAGABOND MOCLEAR     33  29  85  E5      29.97R
#DONALD 2NE     N/A         44  22  41  SW7     28.85R
#GRANDVIEW      N/A         38  31  76  CALM    29.96R
#MABTON         N/A         39  33  79  CALM    30.01R
#MOXEE 2E       N/A         48  N/A N/A NE3     29.86R
#NACHES 2SW     N/A         38  34  85  CALM    29.89S
#OUTLOOK DOT    N/A         39  35  85  CALM    29.97R
#PARKER DOT     N/A         45  34  65  SE5     29.99R
#TERRACE HTS    N/A         39  35  85  CALM    29.96R
#TOPPENISH      N/A         40  34  79  CALM    29.92R
#I82 S UMTANUM RN/A         33  28  82  N1      N/A
#UNION GAP DOT  N/A         35  31  85  E1      30.02R
#W YAKIMA       N/A         39  33  79  CALM    30.00R
#WHITE SWAN 5E  N/A         45  37  73  CALM    29.98S
#WILEY CITY 3W  N/A         36  29  75  CALM    29.95R
#ZILLAH DOT     N/A         41  34  76  NE3     N/A
$$

WAZ028-241210-
LOWER COLUMBIA BASIN...WASHINGTON

CITY            SKY/WX      TMP DP  RH  WIND    PRES   REMARKS
PASCO           CLEAR       46  38  73  SW14    30.02R WCI 40
PROSSER AWOS    N/A         34  32  92  CALM    30.05R
RICHLAND AWOS   CLEAR       46  38  73  SW5     30.03R
#BENTON CITY    N/A         38  33  82  CALM    29.92R
#CONNELL 5N     N/A         36  33  89  SW1     29.99R
#CONNELL 5NW    N/A         36  32  85  SW1     29.93R
#ELTOPIA 6NW    N/A         41  35  79  CALM    28.97R
#KAHLOTUS       N/A         41  35  79  W21G28  29.98R WCI 32
#KENNEWICK 3S   N/A         44  38  79  W8      30.00R
#PATERSON       N/A         43  38  82  NW2     30.03R
#PROSSER DOT    N/A         35  33  92  CALM    30.03R
#SAGEMOOR 2W    N/A         38  33  82  SW3     29.88R
#TOUCHET 2S     N/A         48  39  71  SW22G33 29.99S WCI 41
#WEST PASCO     N/A         44  38  79  CALM    30.00R
$$

WAZ029-241210-
FOOTHILLS OF THE BLUES...WASHINGTON

CITY            SKY/WX      TMP DP  RH  WIND    PRES   REMARKS
WALLA WALLA AP  CLEAR       45  37  73  S12     30.05R WCI 39
#CLYDE 6NW      N/A         39  35  85  S6      30.01R
#DAYTON SCHOOL  N/A         45  32  60  S13     30.03R WCI 39
#DELANEY DOT    N/A         45  36  70  S12     30.04R WCI 39
#LOWDEN 2SE     N/A         46  38  73  W7      30.01R
#PLEASANT VIEW 1N/A         38  35  89  S12     30.03R WCI 30
#PRESCOTT       N/A         43  38  82  CALM    30.02R
#WHITMAN COLLEGEN/A         46  37  71  SE3     30.10R
#WAITSBURG 5S   N/A         42  37  82  S9      30.11R
#WAITSBURG 6SSE N/A         44  35  70  E7      30.05R
#WAITSBURG 8N   N/A         39  N/A N/A S10     30.03R
#WALLA WALLA 5E N/A         45  38  76  SW15    N/A    WCI 38
#WHITMAN MISSIONN/A         47  39  74  S3      30.07R
$$

WAZ030-241210-
BLUE MOUNTAINS...WASHINGTON

CITY            SKY/WX      TMP DP  RH  WIND    PRES   REMARKS
#DIXIE 5SE      N/A         40  34  79  SW15    29.95R WCI 32
$$

ORZ009-041-WAZ024-241210-
COLUMBIA RIVER GORGE

CITY            SKY/WX      TMP DP  RH  WIND    PRES   REMARKS
HOOD RIVER AP   PTCLDY      39  37  92  CALM    30.08R
THE DALLES AP   MOCLDY      44  40  86  S3      30.07R
#ARLINGTON AIRPON/A         42  36  79  W5      30.07R
#ARLINGTON HS   N/A         44  35  70  CALM    29.98R
#CELILO DOT     N/A         48  36  63  SW3     N/A
#LYLE           N/A         49  42  77  NW2     30.09R
#MARYHILL       N/A         44  38  79  N7      N/A
#MURDOCK        N/A         48  43  83  CALM    30.04R
#RUFUS DOT      N/A         47  N/A N/A NW6     N/A
#SMITHVILLE     N/A         43  38  82  N1      30.02R

$$

ORZ510-241210-
NORTH CENTRAL OREGON

CITY            SKY/WX      TMP DP  RH  WIND    PRES   REMARKS
#ANTELOPE       N/A         33  27  78  CALM    29.90R
#CHENOWITH 1W   N/A         42  39  89  W5      N/A
#COW CYN RST AREN/A         37  N/A N/A SW8     N/A
#DUFUR          N/A         32  30  92  CALM    30.03R
#DUFUR 9E       N/A         40  34  79  SW12    30.08R WCI 33
#GRASS VALLEY 1SN/A         37  33  85  SW2     30.06R
#KENT DOT       N/A         38  26  62  SW12    N/A    WCI 30
#MAUPIN SCHOOL  N/A         44  34  68  SW1     30.12R
#SHANIKO 5WSW   N/A         35  N/A N/A SW8     N/A
#SHANIKO 4NW    N/A         36  29  75  W10     30.02R
#TYGH VALLEY 2NEN/A         44  37  76  N2      30.05S
#WAPANITIA AIRPON/A         39  34  82  W3      30.08R
#WASCO DOT      N/A         34  32  92  E2      N/A
#WASCO 5NE      N/A         37  27  67  SW5     30.04R
$$

ORZ511-241210-
CENTRAL OREGON

CITY            SKY/WX      TMP DP  RH  WIND    PRES   REMARKS
BEND AIRPORT    CLEAR       34  32  92  SE3     30.07F
PRINEVILLE AP   CLEAR       37  28  70  NW7     30.08R
REDMOND AIRPORT CLEAR       36  29  75  E5      30.08R
#ASHWOOD SCHOOL N/A         36  29  75  CALM    30.03S
#BEND 1SW       N/A         35  32  89  SW3     N/A
#BEND-AWBREY    N/A         37  29  72  SW5     30.01F
#BEND-KIM LN    N/A         33  29  85  S2      29.96S
#CULVER         N/A         39  30  70  SW9     29.90R
#CULVER 8W      N/A         39  29  67  S5      30.05S
#LAKE BILLY CHINN/A         40  N/A N/A SW6     30.16S
#MADRAS 4S      N/A         34  -1  22  SW8     N/A
#POWELL BUTTE   N/A         37  28  70  SW3     30.01S
#PRINEVILLE     N/A         38  28  67  CALM    30.11R
#PRINEVILLE 3N  N/A         37  28  70  N2      30.02R
#WARM SPRINGS   N/A         38  31  76  CALM    29.94R

$$


ORZ509-241210-
EAST SLOPES OF OREGON CASCADES

CITY            SKY/WX      TMP DP  RH  WIND    PRES   REMARKS
SISTERS AWOS    N/A         39  28  64  W7      N/A
#BLUE BOX PASS  N/A         34  N/A N/A SW2     N/A
#CAMP SHERMAN   N/A         33  31  92  CALM    30.16R
#LA PINE 4NW    N/A         32  29  89  CALM    30.06S
#LAVA BUTTE DOT N/A         33  29  85  CALM    N/A
#SISTERS ODOT   N/A         39  27  62  W3      N/A
#SISTERS 3N     N/A         34  26  72  CALM    30.09S
#SUNRIVER       N/A         34  30  85  NE1     30.02S
#TUMALO 3W      N/A         35  29  78  W2      29.90R
#WANOGA BUTTE D N/A         27  21  78  W14G24  N/A    WCI 16

$$

ORZ044-241210-
LOWER COLUMBIA BASIN...OREGON

CITY            SKY/WX      TMP DP  RH  WIND    PRES   REMARKS
HERMISTON       CLEAR       47  38  71  SW12    30.05R WCI 42
#BOARDMAN SCHOOLN/A         45  38  76  N7      30.05R
#BOARDMAN 8SW   N/A         39  35  85  SW12    30.05R WCI 32
#ECHO 8SW       N/A         44  33  65  SW5     30.06R
#I-84 EX 198 DOTN/A         44  34  68  NE10    N/A
#IONE SCHOOL    N/A         45  31  58  S2      30.06S
#UMATILLA       N/A         45  36  70  S3      29.98R
$$

ORZ507-241210-
NORTHERN FOOTHILLS OF THE BLUES

CITY            SKY/WX      TMP DP  RH  WIND    PRES   REMARKS
PENDLETON AIRPT CLEAR       40  34  79  S8      30.04R
#ADAMS 3WNW     N/A         37  34  89  SW5     30.04R
#ATHENA         N/A         42  36  79  CALM    30.05R
#HELIX SCHOOL   N/A         38  34  85  N10     30.02R
#HELIX 3N       N/A         39  35  85  SW13    30.00R WCI 31
#HOLDMAN 5SE    N/A         40  36  85  SW2     30.03R
#HOLDMAN 6E     N/A         41  37  86  S12     29.83R WCI 34
#M-F GROVE ELEM N/A         47  34  60  S6      30.02R
#M-FREEWATER 5SEN/A         45  35  68  SW8     30.05R
#PENDLETON DNTN N/A         41  32  70  CALM    30.04
#PDT AQUATIC CTRN/A         41  34  76  CALM    30.09S
#PDT SUNRIDGE   N/A         41  36  82  S5      30.07R
#PENDLETON 6SE  N/A         42  37  82  SW12    30.00R WCI 35
#PENDLETON 7NW  N/A         42  35  76  SW7     30.10R
#PILOT ROCK 1S  N/A         41  29  62  E1      30.06R
#PILOT ROCK     N/A         38  33  82  CALM    30.06R
#TUTUILLA       N/A         40  36  85  S3      30.09R
#UMAPINE 2E     N/A         46  38  73  S2      30.03R
#WESTON SCHOOL  N/A         43  34  70  W12     29.98R WCI 37

$$

ORZ508-241210-
SOUTHERN FOOTHILLS OF THE BLUES

CITY            SKY/WX      TMP DP  RH  WIND    PRES   REMARKS
LEXINGTON       CLEAR       39  34  82  E3      30.09R
#AJAX           N/A         41  27  57  N8      30.19R
#CONDON 5W      N/A         36  31  82  CALM    30.01R
#HEPPNER EOC    N/A         38  32  79  E1      29.97R
#HEPPNER 4NE    N/A         38  32  79  SW5     30.01R
#LEXINGTON 2SE  N/A         43  34  70  SW6     30.03R
#MIKKALO        N/A         42  33  70  W2      30.14R
#OLEX 4N        N/A         41  35  79  S7      30.03R
#RUGGS 5NE      N/A         36  31  82  SW5     30.20R
#RUGGS 2SW      N/A         38  31  76  SW7     30.04R

$$

ORZ502-503-241210-
BLUE MOUNTAINS

CITY            SKY/WX      TMP DP  RH  WIND    PRES   REMARKS
MEACHAM         CLEAR       32  31  96  CALM    30.02R
#BATTLE MTN DOT N/A         33  31  92  S2      N/A
#GRANITE        N/A         35  32  89  CALM    30.06S
#GREENHORN 9SW  N/A         41  39  93  CALM    30.01R
#HARDMAN 10S    N/A         32  26  78  CALM    30.11R
#LADD CYN SMT   N/A         41  37  86  N7      N/A
#LADD CREEK ODOTN/A         40  38  92  CALM    N/A
#LONG CREEK HS  N/A         41  40  96  CALM    30.04R
#N POWDER DOT   N/A         43  34  70  NE14    N/A    WCI 36
#PIKES PEAK     N/A         37  31  79  CALM    27.99S
#TOLLGATE       N/A         30  29  96  SW5     29.84R
#TROY SCHOOL    N/A         42  39  89  W1      29.88R
#UKIAH          N/A         34  31  89  VRB1    29.90R
#WESTON 4E      N/A         37  33  85  SW6     29.97R
$$

ORZ505-241210-
JOHN DAY BASIN

CITY            SKY/WX      TMP DP  RH  WIND    PRES   REMARKS
JOHN DAY        PTCLDY      42  39  89  SW5     30.04S
#ANTELOPE 9ESE  N/A         41  30  65  CALM    N/A
#DAYVILLE SCHOOLN/A         47  39  74  CALM    30.01R
#MITCHELL 8NW   N/A         38  30  73  E3      30.05R
#MONUMENT HS    N/A         41  37  86  CALM    30.00S
#MT. VERNON 5SE N/A         40  38  92  CALM    29.98F
#WINLOCK        N/A         35  28  75  S5      30.01S
$$

ORZ506-241210-
OCHOCO AND JOHN DAY HIGHLANDS

CITY            SKY/WX      TMP DP  RH  WIND    PRES   REMARKS
#HORSE RIDGE DO N/A         37  32  82  N3      N/A
#IZEE 6NW       N/A         39  34  82  W2      N/A
#PAULINA ODOT   N/A         41  36  82  S1      N/A
#PINE MTN OBS   N/A         29  26  88  NW5     N/A
#PRAIRIE CITY   N/A         43  41  93  CALM    30.19R
#SENECA         N/A         38  N/A N/A N2      N/A
#SENECA 9NW     N/A         38  37  96  CALM    29.96R
$$

ORZ049-241210-
GRANDE RONDE VALLEY

CITY            SKY/WX      TMP DP  RH  WIND    PRES   REMARKS
LA GRANDE       PTCLDY      41  35  79  N9      30.04
#COVE SCHOOL    N/A         42  38  86  CALM    30.05R
#COVE 6NW       N/A         42  37  82  CALM    30.00R
#ELGIN 3N       N/A         36  29  75  CALM    30.45R
#ELGIN 1E       N/A         41  33  73  CALM    N/A
#IMBLER SCHOOL  N/A         42  33  70  CALM    30.01R
#ISLAND CITY 4N N/A         43  42  96  CALM    30.13R
#LADD CYN DOT   N/A         43  41  93  NE3     N/A
#UNION 1S       N/A         45  40  82  CALM    30.00R
$$

ORZ050-241210-
WALLOWA COUNTY

CITY            SKY/WX      TMP DP  RH  WIND    PRES   REMARKS
JOSEPH AIRPORT  CLOUDY      39  36  89  N5      30.01R
#ENTERPRISE HS  N/A         38  36  92  CALM    29.82R
#IMNAHA SCHOOL  N/A         45  40  82  CALM    30.01R
#IMNAHA 10S     N/A         41  38  89  W1      29.99R
#JOSEPH         N/A         39  36  89  CALM    30.45R
#JOSEPH 3N      N/A         38  34  85  CALM    30.02R
#JOSEPH 3W      N/A         35  34  96  CALM    30.45R
#LOSTINE        N/A         36  33  89  CALM    29.77R
#LOSTINE 3SE    N/A         37  34  89  CALM    30.03R
#MT HOWARD 8000 N/A         28  24  85  W12G39  29.94R WCI 18
#PROMISE 1S     N/A         37  32  82  W5      30.09R



$$



USA.gov is the U.S. government's official web portal to all federal, state and local government web resources and services.